Location: Namasale
(1.5000°N, 32.6167°E)
Time: 08:09:54
(UTC+00:00)

Courier 1B - Pass Details

Date: 27 April 2021
Orbit: 962 x 1209 km, 28.3° (Epoch: 15 May)

Event Time Altitude Azimuth Distance (km) Brightness Sun altitude
Rises 03:29:18 0° 238° (WSW) 4,109 - -4.0°
Exits shadow 03:29:57 - 237° (WSW) 3,888 10.0 -3.8°
Reaches altitude 10° 03:32:10 10° 236° (WSW) 3,141 9.6 -3.3°
Maximum altitude 03:40:03 81° 150° (SSE) 1,197 8.1 -1.4°
Drops below altitude 10° 03:47:38 10° 63° (ENE) 3,028 12.0 0.5°
Sets 03:50:21 0° 62° (ENE) 3,954 12.7 1.1°
